Time,TemperatureF,DewpointF,PressureIn,WindDirection,WindDirectionDegrees,WindSpeedMPH,WindSpeedGustMPH,Humidity,HourlyPrecipIn,Conditions,Clouds,dailyrainin,SoftwareType,DateUTC
2013-04-18 00:03:00,61.0,58.0,30.17,WSW,246,0.0,0.0,89,0.00,,,0.00,,2013-04-18 04:03:00,
2013-04-18 00:13:00,61.0,58.0,30.17,WSW,246,0.0,0.0,89,0.00,,,0.00,,2013-04-18 04:13:00,
2013-04-18 00:23:00,61.0,58.0,30.16,WSW,246,0.0,0.0,90,0.00,,,0.00,,2013-04-18 04:23:00,
2013-04-18 00:33:00,61.0,58.0,30.16,WSW,246,0.0,0.0,89,0.00,,,0.00,,2013-04-18 04:33:00,
2013-04-18 00:43:00,61.0,58.0,30.16,WSW,246,0.0,0.0,90,0.00,,,0.00,,2013-04-18 04:43:00,
2013-04-18 00:53:00,61.0,58.0,30.16,WSW,246,0.0,0.0,90,0.00,,,0.00,,2013-04-18 04:53:00,
2013-04-18 01:02:00,60.0,57.0,30.15,WSW,246,0.0,0.0,91,0.00,,,0.00,,2013-04-18 05:02:00,
2013-04-18 01:12:00,60.0,57.0,30.15,WSW,246,1.0,2.0,91,0.00,,,0.00,,2013-04-18 05:12:00,
2013-04-18 01:22:00,60.0,57.0,30.15,WSW,246,1.0,2.0,91,0.00,,,0.00,,2013-04-18 05:22:00,
2013-04-18 01:33:00,59.0,57.0,30.15,WSW,246,0.0,1.0,93,0.00,,,0.00,,2013-04-18 05:33:00,
2013-04-18 01:42:00,59.0,57.0,30.15,WSW,246,1.0,1.0,93,0.00,,,0.00,,2013-04-18 05:42:00,
2013-04-18 01:52:00,59.0,57.0,30.15,WSW,246,1.0,1.0,93,0.00,,,0.00,,2013-04-18 05:52:00,
2013-04-18 02:02:00,59.0,57.0,30.14,WSW,246,0.0,1.0,94,0.00,,,0.00,,2013-04-18 06:02:00,
2013-04-18 02:12:00,59.0,57.0,30.14,WSW,246,0.0,1.0,94,0.00,,,0.00,,2013-04-18 06:12:00,
2013-04-18 02:22:00,59.0,57.0,30.14,WSW,246,0.0,0.0,94,0.00,,,0.00,,2013-04-18 06:22:00,
2013-04-18 02:32:00,59.0,57.0,30.14,WSW,246,0.0,0.0,94,0.00,,,0.00,,2013-04-18 06:32:00,
2013-04-18 02:42:00,59.0,57.0,30.14,WSW,246,0.0,0.0,94,0.00,,,0.00,,2013-04-18 06:42:00,
2013-04-18 02:52:00,59.0,57.0,30.14,WSW,246,0.0,0.0,94,0.00,,,0.00,,2013-04-18 06:52:00,
2013-04-18 03:02:00,59.0,57.0,30.14,WSW,246,0.0,0.0,94,0.00,,,0.00,,2013-04-18 07:02:00,
2013-04-18 03:12:00,59.0,57.0,30.14,WSW,246,0.0,0.0,94,0.00,,,0.00,,2013-04-18 07:12:00,
2013-04-18 03:22:00,59.0,57.0,30.14,WSW,246,0.0,0.0,94,0.00,,,0.00,,2013-04-18 07:22:00,
2013-04-18 03:32:00,59.0,57.0,30.14,WSW,246,0.0,0.0,94,0.00,,,0.00,,2013-04-18 07:32:00,
2013-04-18 03:42:00,59.0,57.0,30.13,WSW,246,0.0,0.0,93,0.00,,,0.00,,2013-04-18 07:42:00,
2013-04-18 03:53:00,59.0,57.0,30.13,WSW,246,0.0,0.0,93,0.00,,,0.00,,2013-04-18 07:53:00,
2013-04-18 04:02:00,58.0,56.0,30.14,WSW,246,0.0,0.0,93,0.00,,,0.00,,2013-04-18 08:02:00,
2013-04-18 04:12:00,58.0,56.0,30.14,WSW,246,0.0,0.0,94,0.00,,,0.00,,2013-04-18 08:12:00,
2013-04-18 04:22:00,58.0,56.0,30.14,WSW,246,0.0,0.0,94,0.00,,,0.00,,2013-04-18 08:22:00,
2013-04-18 04:32:00,58.0,56.0,30.14,WSW,246,0.0,0.0,94,0.00,,,0.00,,2013-04-18 08:32:00,
2013-04-18 04:42:00,57.0,55.0,30.14,WSW,246,0.0,0.0,94,0.00,,,0.00,,2013-04-18 08:42:00,
2013-04-18 04:52:00,57.0,55.0,30.14,WSW,246,0.0,0.0,94,0.00,,,0.00,,2013-04-18 08:52:00,
2013-04-18 05:02:00,57.0,56.0,30.15,WSW,246,0.0,0.0,95,0.00,,,0.00,,2013-04-18 09:02:00,
2013-04-18 05:12:00,57.0,56.0,30.15,SE,141,0.0,0.0,95,0.00,,,0.00,,2013-04-18 09:12:00,
2013-04-18 05:22:00,57.0,56.0,30.15,SE,141,0.0,0.0,95,0.00,,,0.00,,2013-04-18 09:22:00,
2013-04-18 05:33:00,57.0,56.0,30.15,SE,132,0.0,0.0,95,0.00,,,0.00,,2013-04-18 09:33:00,
2013-04-18 05:43:00,57.0,56.0,30.15,SE,132,0.0,0.0,96,0.00,,,0.00,,2013-04-18 09:43:00,
2013-04-18 05:53:00,57.0,56.0,30.15,SE,132,0.0,0.0,96,0.00,,,0.00,,2013-04-18 09:53:00,
2013-04-18 06:03:00,56.0,55.0,30.15,SE,132,0.0,0.0,95,0.00,,,0.00,,2013-04-18 10:03:00,
2013-04-18 06:12:00,56.0,55.0,30.15,SE,132,0.0,0.0,95,0.00,,,0.00,,2013-04-18 10:12:00,
2013-04-18 06:23:00,56.0,55.0,30.16,SE,132,0.0,0.0,95,0.00,,,0.00,,2013-04-18 10:23:00,
2013-04-18 06:32:00,56.0,55.0,30.16,SE,132,0.0,0.0,95,0.00,,,0.00,,2013-04-18 10:32:00,
2013-04-18 06:42:00,56.0,55.0,30.16,SE,132,0.0,0.0,95,0.00,,,0.00,,2013-04-18 10:42:00,
2013-04-18 06:53:00,56.0,55.0,30.16,SE,132,0.0,0.0,96,0.00,,,0.00,,2013-04-18 10:53:00,
2013-04-18 07:02:00,58.0,57.0,30.17,SSE,155,0.0,1.0,97,0.00,,,0.00,,2013-04-18 11:02:00,
2013-04-18 07:12:00,59.0,58.0,30.17,SE,141,1.0,2.0,97,0.00,,,0.00,,2013-04-18 11:12:00,
2013-04-18 07:22:00,59.0,58.0,30.17,SE,141,1.0,2.0,97,0.00,,,0.00,,2013-04-18 11:22:00,
2013-04-18 07:32:00,59.0,58.0,30.17,SSW,205,0.0,2.0,97,0.00,,,0.00,,2013-04-18 11:32:00,
2013-04-18 07:42:00,59.0,58.0,30.17,SSW,205,0.0,2.0,97,0.00,,,0.00,,2013-04-18 11:42:00,
2013-04-18 07:52:00,59.0,58.0,30.18,South,169,1.0,4.0,97,0.00,,,0.00,,2013-04-18 11:52:00,
2013-04-18 08:02:00,60.0,59.0,30.19,SSE,166,0.0,4.0,97,0.00,,,0.00,,2013-04-18 12:02:00,
2013-04-18 08:12:00,60.0,59.0,30.19,SSE,166,0.0,4.0,97,0.00,,,0.00,,2013-04-18 12:12:00,
2013-04-18 08:22:00,60.0,59.0,30.19,SSE,147,1.0,3.0,97,0.00,,,0.00,,2013-04-18 12:22:00,
2013-04-18 08:32:00,61.0,60.0,30.19,SSW,195,1.0,5.0,96,0.00,,,0.00,,2013-04-18 12:32:00,
2013-04-18 08:42:00,61.0,60.0,30.19,SSW,195,1.0,5.0,96,0.00,,,0.00,,2013-04-18 12:42:00,
2013-04-18 08:52:00,62.0,61.0,30.19,SE,144,1.0,6.0,95,0.00,,,0.00,,2013-04-18 12:52:00,
2013-04-18 09:02:00,62.0,60.0,30.19,SE,146,3.0,6.0,93,0.00,,,0.00,,2013-04-18 13:02:00,
2013-04-18 09:12:00,63.0,61.0,30.19,SSE,165,2.0,6.0,93,0.00,,,0.00,,2013-04-18 13:12:00,
2013-04-18 09:22:00,63.0,61.0,30.19,SSE,165,2.0,6.0,93,0.00,,,0.00,,2013-04-18 13:22:00,
2013-04-18 09:32:00,63.0,61.0,30.19,WSW,257,3.0,8.0,92,0.00,,,0.00,,2013-04-18 13:32:00,
2013-04-18 09:42:00,63.0,60.0,30.19,South,180,4.0,8.0,91,0.00,,,0.00,,2013-04-18 13:42:00,
2013-04-18 09:53:00,63.0,60.0,30.19,South,180,4.0,8.0,91,0.00,,,0.00,,2013-04-18 13:53:00,
2013-04-18 10:02:00,64.0,61.0,30.19,SW,234,3.0,6.0,90,0.00,,,0.00,,2013-04-18 14:02:00,
2013-04-18 10:12:00,64.0,61.0,30.19,South,186,3.0,6.0,89,0.00,,,0.00,,2013-04-18 14:12:00,
2013-04-18 10:22:00,64.0,61.0,30.19,South,186,3.0,6.0,89,0.00,,,0.00,,2013-04-18 14:22:00,
2013-04-18 10:32:00,64.0,60.0,30.20,SW,236,6.0,9.0,87,0.00,,,0.00,,2013-04-18 14:32:00,
2013-04-18 10:43:00,64.0,60.0,30.20,SW,236,6.0,9.0,87,0.00,,,0.00,,2013-04-18 14:43:00,
2013-04-18 10:52:00,64.0,60.0,30.20,WSW,241,3.0,5.0,87,0.00,,,0.00,,2013-04-18 14:52:00,
2013-04-18 11:03:00,64.0,60.0,30.20,SE,134,2.0,6.0,87,0.00,,,0.00,,2013-04-18 15:03:00,
2013-04-18 11:12:00,64.0,60.0,30.20,SE,134,2.0,6.0,87,0.00,,,0.00,,2013-04-18 15:12:00,
2013-04-18 11:22:00,65.0,61.0,30.20,SSW,212,1.0,5.0,87,0.00,,,0.00,,2013-04-18 15:22:00,
2013-04-18 11:33:00,65.0,61.0,30.20,South,184,2.0,5.0,87,0.00,,,0.00,,2013-04-18 15:33:00,
2013-04-18 11:43:00,65.0,60.0,30.19,SW,232,2.0,5.0,85,0.00,,,0.00,,2013-04-18 15:43:00,
2013-04-18 11:53:00,65.0,60.0,30.19,SW,232,2.0,5.0,85,0.00,,,0.00,,2013-04-18 15:53:00,
2013-04-18 12:03:00,66.0,61.0,30.19,SSW,201,4.0,7.0,83,0.00,,,0.00,,2013-04-18 16:03:00,
2013-04-18 12:13:00,67.0,61.0,30.19,SSW,196,6.0,8.0,80,0.00,,,0.00,,2013-04-18 16:13:00,
2013-04-18 12:23:00,67.0,61.0,30.19,SSW,196,6.0,8.0,80,0.00,,,0.00,,2013-04-18 16:23:00,
2013-04-18 12:33:00,67.0,61.0,30.18,SSW,205,3.0,8.0,81,0.00,,,0.00,,2013-04-18 16:33:00,
2013-04-18 12:43:00,69.0,60.0,30.18,South,190,8.0,13.0,74,0.00,,,0.00,,2013-04-18 16:43:00,
2013-04-18 12:53:00,69.0,60.0,30.18,South,190,8.0,13.0,74,0.00,,,0.00,,2013-04-18 16:53:00,
2013-04-18 13:03:00,70.0,61.0,30.17,SW,221,6.0,14.0,72,0.00,,,0.00,,2013-04-18 17:03:00,
2013-04-18 13:12:00,71.0,60.0,30.16,South,171,5.0,13.0,69,0.00,,,0.00,,2013-04-18 17:12:00,
2013-04-18 13:22:00,71.0,60.0,30.16,South,171,5.0,13.0,69,0.00,,,0.00,,2013-04-18 17:22:00,
2013-04-18 13:33:00,72.0,61.0,30.15,South,190,4.0,11.0,68,0.00,,,0.00,,2013-04-18 17:33:00,
2013-04-18 13:42:00,72.0,60.0,30.14,South,180,3.0,12.0,67,0.00,,,0.00,,2013-04-18 17:42:00,
2013-04-18 13:52:00,72.0,60.0,30.14,South,180,3.0,12.0,67,0.00,,,0.00,,2013-04-18 17:52:00,
2013-04-18 14:03:00,73.0,61.0,30.14,SSW,200,6.0,13.0,65,0.00,,,0.00,,2013-04-18 18:03:00,
2013-04-18 14:12:00,73.0,60.0,30.14,SSW,200,7.0,12.0,64,0.00,,,0.00,,2013-04-18 18:12:00,
2013-04-18 14:23:00,73.0,60.0,30.14,SSW,200,7.0,12.0,64,0.00,,,0.00,,2013-04-18 18:23:00,
2013-04-18 14:32:00,73.0,61.0,30.14,SSE,167,7.0,14.0,66,0.00,,,0.00,,2013-04-18 18:32:00,
2013-04-18 14:42:00,74.0,61.0,30.14,WSW,238,6.0,14.0,63,0.00,,,0.00,,2013-04-18 18:42:00,
2013-04-18 14:52:00,74.0,61.0,30.14,WSW,238,6.0,14.0,63,0.00,,,0.00,,2013-04-18 18:52:00,
2013-04-18 15:02:00,75.0,60.0,30.13,SSE,160,5.0,11.0,60,0.00,,,0.00,,2013-04-18 19:02:00,
2013-04-18 15:12:00,75.0,60.0,30.13,SSE,160,5.0,11.0,60,0.00,,,0.00,,2013-04-18 19:12:00,
2013-04-18 15:22:00,75.0,59.0,30.11,South,169,5.0,16.0,57,0.00,,,0.00,,2013-04-18 19:22:00,
2013-04-18 15:32:00,74.0,58.0,30.11,South,174,5.0,17.0,58,0.00,,,0.00,,2013-04-18 19:32:00,
2013-04-18 15:42:00,74.0,58.0,30.11,South,174,5.0,17.0,58,0.00,,,0.00,,2013-04-18 19:42:00,
2013-04-18 15:53:00,75.0,55.0,30.11,WSW,239,6.0,16.0,50,0.00,,,0.00,,2013-04-18 19:53:00,
2013-04-18 16:02:00,76.0,56.0,30.10,SSW,196,5.0,19.0,50,0.00,,,0.00,,2013-04-18 20:02:00,
2013-04-18 16:12:00,76.0,56.0,30.10,SSW,196,5.0,19.0,50,0.00,,,0.00,,2013-04-18 20:12:00,
2013-04-18 16:22:00,75.0,55.0,30.09,SSW,197,7.0,13.0,50,0.00,,,0.00,,2013-04-18 20:22:00,
2013-04-18 16:32:00,76.0,56.0,30.09,SE,143,6.0,19.0,50,0.00,,,0.00,,2013-04-18 20:32:00,
2013-04-18 16:42:00,76.0,55.0,30.09,SW,223,9.0,15.0,49,0.00,,,0.00,,2013-04-18 20:42:00,
2013-04-18 16:52:00,76.0,55.0,30.09,SW,223,9.0,15.0,49,0.00,,,0.00,,2013-04-18 20:52:00,
2013-04-18 17:02:00,75.0,56.0,30.09,SSW,192,4.0,14.0,52,0.00,,,0.00,,2013-04-18 21:02:00,
2013-04-18 17:12:00,77.0,57.0,30.07,South,181,5.0,13.0,50,0.00,,,0.00,,2013-04-18 21:12:00,
2013-04-18 17:22:00,77.0,57.0,30.07,South,181,5.0,13.0,50,0.00,,,0.00,,2013-04-18 21:22:00,
2013-04-18 17:33:00,75.0,56.0,30.06,SSE,147,5.0,12.0,52,0.00,,,0.00,,2013-04-18 21:33:00,
2013-04-18 17:43:00,76.0,58.0,30.06,West,271,5.0,12.0,53,0.00,,,0.00,,2013-04-18 21:43:00,
2013-04-18 17:53:00,76.0,58.0,30.06,West,271,5.0,12.0,53,0.00,,,0.00,,2013-04-18 21:53:00,
2013-04-18 18:02:00,76.0,58.0,30.06,SSW,207,6.0,13.0,53,0.00,,,0.00,,2013-04-18 22:02:00,
2013-04-18 18:13:00,75.0,56.0,30.06,SSW,204,7.0,15.0,52,0.00,,,0.00,,2013-04-18 22:13:00,
2013-04-18 18:23:00,75.0,56.0,30.06,SSW,204,7.0,15.0,52,0.00,,,0.00,,2013-04-18 22:23:00,
2013-04-18 18:32:00,74.0,56.0,30.05,SSE,163,4.0,10.0,54,0.00,,,0.00,,2013-04-18 22:32:00,
2013-04-18 18:42:00,74.0,58.0,30.05,South,179,4.0,10.0,57,0.00,,,0.00,,2013-04-18 22:42:00,
2013-04-18 18:52:00,74.0,58.0,30.05,South,179,4.0,10.0,57,0.00,,,0.00,,2013-04-18 22:52:00,
2013-04-18 19:04:00,74.0,58.0,30.05,SW,224,4.0,11.0,58,0.00,,,0.00,,2013-04-18 23:04:00,
2013-04-18 19:12:00,73.0,58.0,30.04,South,180,1.0,8.0,60,0.00,,,0.00,,2013-04-18 23:12:00,
2013-04-18 19:21:00,73.0,58.0,30.04,South,180,1.0,8.0,60,0.00,,,0.00,,2013-04-18 23:21:00,
2013-04-18 19:32:00,73.0,58.0,30.04,SW,223,3.0,7.0,60,0.00,,,0.00,,2013-04-18 23:32:00,
2013-04-18 19:42:00,72.0,58.0,30.04,SSW,196,2.0,6.0,61,0.00,,,0.00,,2013-04-18 23:42:00,
2013-04-18 19:52:00,72.0,58.0,30.04,SSW,196,2.0,6.0,61,0.00,,,0.00,,2013-04-18 23:52:00,
2013-04-18 20:01:00,72.0,58.0,30.04,SSE,162,1.0,4.0,62,0.00,,,0.00,,2013-04-19 00:01:00,
2013-04-18 20:12:00,72.0,59.0,30.04,SSE,150,2.0,5.0,64,0.00,,,0.00,,2013-04-19 00:12:00,
2013-04-18 20:22:00,72.0,59.0,30.04,SSE,150,2.0,5.0,64,0.00,,,0.00,,2013-04-19 00:22:00,
2013-04-18 20:32:00,71.0,58.0,30.03,South,183,3.0,7.0,64,0.00,,,0.00,,2013-04-19 00:32:00,
2013-04-18 20:42:00,71.0,59.0,30.03,South,184,2.0,5.0,65,0.00,,,0.00,,2013-04-19 00:42:00,
2013-04-18 20:52:00,71.0,59.0,30.03,South,184,2.0,5.0,65,0.00,,,0.00,,2013-04-19 00:52:00,
2013-04-18 21:01:00,70.0,59.0,30.03,SSE,157,1.0,3.0,67,0.00,,,0.00,,2013-04-19 01:01:00,
2013-04-18 21:11:00,70.0,59.0,30.03,SSE,157,1.0,3.0,67,0.00,,,0.00,,2013-04-19 01:11:00,
2013-04-18 21:21:00,70.0,59.0,30.04,SSE,160,0.0,2.0,68,0.00,,,0.00,,2013-04-19 01:21:00,
2013-04-18 21:32:00,69.0,59.0,30.04,South,169,1.0,4.0,70,0.00,,,0.00,,2013-04-19 01:32:00,
2013-04-18 21:42:00,69.0,59.0,30.04,South,169,1.0,4.0,70,0.00,,,0.00,,2013-04-19 01:42:00,
2013-04-18 21:52:00,69.0,59.0,30.04,SSW,200,2.0,6.0,70,0.00,,,0.00,,2013-04-19 01:52:00,
2013-04-18 22:02:00,69.0,59.0,30.04,SSW,194,2.0,5.0,71,0.00,,,0.00,,2013-04-19 02:02:00,
2013-04-18 22:11:00,69.0,59.0,30.04,SSW,194,2.0,5.0,71,0.00,,,0.00,,2013-04-19 02:11:00,
2013-04-18 22:21:00,68.0,59.0,30.04,South,170,1.0,5.0,72,0.00,,,0.00,,2013-04-19 02:21:00,
2013-04-18 22:32:00,68.0,59.0,30.03,WSW,244,1.0,4.0,72,0.00,,,0.00,,2013-04-19 02:32:00,
2013-04-18 22:42:00,68.0,59.0,30.03,WSW,240,1.0,4.0,73,0.00,,,0.00,,2013-04-19 02:42:00,
2013-04-18 22:52:00,68.0,59.0,30.03,WSW,240,1.0,4.0,73,0.00,,,0.00,,2013-04-19 02:52:00,
2013-04-18 23:01:00,68.0,59.0,30.03,SW,224,5.0,7.0,73,0.00,,,0.00,,2013-04-19 03:01:00,
2013-04-18 23:12:00,68.0,59.0,30.03,SW,224,5.0,7.0,73,0.00,,,0.00,,2013-04-19 03:12:00,
2013-04-18 23:22:00,68.0,59.0,30.03,South,173,3.0,7.0,73,0.00,,,0.00,,2013-04-19 03:22:00,
2013-04-18 23:33:00,68.0,59.0,30.02,SE,144,2.0,7.0,73,0.00,,,0.00,,2013-04-19 03:33:00,
2013-04-18 23:43:00,68.0,59.0,30.02,South,176,5.0,10.0,72,0.00,,,0.00,,2013-04-19 03:43:00,
2013-04-18 23:53:00,68.0,59.0,30.02,South,176,5.0,10.0,72,0.00,,,0.00,,2013-04-19 03:53:00,